FW8535 Weather Reports


time (UTC)temp
C
wind
direction
speed
KPH
gust
KPH
rain 1hr
cm
rain 24hr
cm
rain mn
cm
humidity
%
barometer
mb
20260502223052 20 5 8.0 17.7 0.00 0.00 0.00 32 1012.9
20260502222550 20 360 9.7 22.5 0.00 0.00 0.00 31 1013.1
20260502222050 21 360 8.0 25.7 0.00 0.00 0.00 30 1012.9
20260502221651 21 317 11.3 25.7 0.00 0.00 0.00 29 1013.1
20260502221052 20 315 8.0 19.3 0.00 0.00 0.00 29 1013.1
20260502220549 21 306 9.7 22.5 0.00 0.00 0.00 28 1012.9
20260502220049 21 313 6.4 25.7 0.00 0.00 0.00 30 1013.3
20260502215051 21 314 8.0 22.5 0.00 0.00 0.00 29 1013.3
20260502214603 22 260 8.0 24.1 0.00 0.00 0.00 29 1013.3
20260502214051 21 12 8.0 19.3 0.00 0.00 0.00 29 1013.3
20260502213553 21 17 6.4 24.1 0.00 0.00 0.00 31 1013.4
20260502213054 21 15 9.7 24.1 0.00 0.00 0.00 30 1013.3
20260502212550 22 303 6.4 22.5 0.00 0.00 0.00 30 1013.3
20260502212050 21 275 8.0 22.5 0.00 0.00 0.00 30 1013.3
20260502211550 21 360 11.3 24.1 0.00 0.00 0.00 30 1013.5
20260502211053 21 9 9.7 24.1 0.00 0.00 0.00 30 1013.5
20260502210550 21 53 8.0 25.7 0.00 0.00 0.00 30 1013.3
20260502210049 21 313 6.4 29.0 0.00 0.00 0.00 30 1013.5
20260502205049 21 5 6.4 24.1 0.00 0.00 0.00 30 1013.4
20260502204551 21 355 8.0 27.4 0.00 0.00 0.00 32 1013.5
20260502204048 21 292 14.5 27.4 0.00 0.00 0.00 29 1013.5
20260502203548 21 317 6.4 22.5 0.00 0.00 0.00 31 1013.4
20260502203055 21 10 9.7 24.1 0.00 0.00 0.00 30 1013.5
20260502202547 22 315 12.9 24.1 0.00 0.00 0.00 30 1013.5
20260502202046 21 302 8.0 27.4 0.00 0.00 0.00 30 1013.4
20260502201549 21 360 12.9 27.4 0.00 0.00 0.00 31 1013.6
20260502201047 21 49 12.9 25.7 0.00 0.00 0.00 32 1013.6
20260502200549 21 40 11.3 19.3 0.00 0.00 0.00 30 1013.5
20260502200046 21 9 11.3 19.3 0.00 0.00 0.00 31 1013.5
20260502195044 21 32 11.3 20.9 0.00 0.00 0.00 32 1013.5
20260502194544 21 5 9.7 22.5 0.00 0.00 0.00 31 1013.6
20260502194044 21 346 9.7 22.5 0.00 0.00 0.00 31 1013.5
20260502193545 21 355 8.0 20.9 0.00 0.00 0.00 32 1013.5
20260502193045 21 309 8.0 25.7 0.00 0.00 0.00 30 1013.4
20260502192543 22 5 11.3 25.7 0.00 0.00 0.00 31 1013.5
20260502192043 21 348 9.7 24.1 0.00 0.00 0.00 33 1013.3
20260502191543 20 5 9.7 19.3 0.00 0.00 0.00 33 1013.4
20260502191042 20 326 6.4 24.1 0.00 0.00 0.00 32 1013.5
20260502190541 21 360 12.9 24.1 0.00 0.00 0.00 30 1013.7
20260502190041 21 311 11.3 27.4 0.00 0.00 0.00 32 1013.7
20260502185043 20 5 11.3 22.5 0.00 0.00 0.00 32 1013.5
20260502184546 20 12 12.9 24.1 0.00 0.00 0.00 31 1013.6
20260502184047 20 5 11.3 24.1 0.00 0.00 0.00 32 1013.6
20260502183544 20 24 12.9 20.9 0.00 0.00 0.00 33 1013.6
20260502183043 20 19 4.8 22.5 0.00 0.00 0.00 32 1013.5
20260502182544 21 5 11.3 22.5 0.00 0.00 0.00 31 1013.6
20260502182042 21 334 11.3 27.4 0.00 0.00 0.00 31 1013.8
20260502181542 20 18 14.5 27.4 0.00 0.00 0.00 33 1013.7
20260502181042 20 18 14.5 24.1 0.00 0.00 0.00 33 1013.7
20260502180544 20 13 12.9 24.1 0.00 0.00 0.00 33 1013.5
20260502164034 20 13 11.3 24.1 0.00 0.00 0.00 35 1013.6
20260502163534 20 50 14.5 29.0 0.00 0.00 0.00 34 1013.5
20260502163036 20 63 11.3 29.0 0.00 0.00 0.00 34 1013.4
20260502162533 20 360 11.3 25.7 0.00 0.00 0.00 35 1013.4
20260502162032 19 13 12.9 25.7 0.00 0.00 0.00 36 1013.5
20260502161531 19 22 8.0 19.3 0.00 0.00 0.00 37 1013.5
20260502161030 19 355 9.7 20.9 0.00 0.00 0.00 36 1013.4
20260502160531 18 340 8.0 20.9 0.00 0.00 0.00 38 1013.3
20260502152026 17 101 3.2 17.7 0.00 0.00 0.00 41 1013.5
20260502151524 17 24 6.4 17.7 0.00 0.00 0.00 40 1013.4
20260502151026 16 13 6.4 17.7 0.00 0.00 0.00 41 1013.5
20260502150523 16 27 4.8 16.1 0.00 0.00 0.00 41 1013.6
20260502130558 10 227 4.8 6.4 0.00 0.00 0.00 53 1013.5
20260502123559 6 233 9.7 14.5 0.00 0.00 0.00 59 1013.2
20260502123058 5 227 8.0 11.3 0.00 0.00 0.00 60 1013.5
20260502122557 5 232 4.8 6.4 0.00 0.00 0.00 59 1013.7
20260502122056 5 232 1.6 4.8 0.00 0.00 0.00 58 1013.6
20260502121555 6 230 1.6 4.8 0.00 0.00 0.00 57 1013.8
20260502121054 6 231 1.6 3.2 0.00 0.00 0.00 57 1013.9
20260502120553 6 229 0.0 4.8 0.00 0.00 0.00 56 1013.7
20260502120104 6 210 1.6 11.3 0.00 0.00 0.00 56 1013.6
20260502115049 6 244 3.2 16.1 0.00 0.00 0.00 54 1013.7
20260502114556 7 246 11.3 16.1 0.00 0.00 0.00 53 1013.7
20260502114048 7 248 12.9 16.1 0.00 0.00 0.00 53 1013.7
20260502113547 7 254 8.0 22.5 0.00 0.00 0.00 53 1013.9
20260502113048 7 246 8.0 22.5 0.00 0.00 0.00 54 1013.6
20260502112546 7 246 16.1 19.3 0.00 0.00 0.00 54 1013.5
20260502112046 7 253 6.4 22.5 0.00 0.00 0.00 53 1014.0
20260502111550 7 227 16.1 27.4 0.00 0.00 0.00 52 1013.5
20260502111047 8 229 17.7 33.8 0.00 0.00 0.00 51 1013.4
20260502110544 8 224 22.5 33.8 0.00 0.00 0.00 51 1013.4
20260502110043 8 223 22.5 29.0 0.00 0.00 0.00 51 1013.4
20260502105041 8 208 22.5 37.0 0.00 0.00 0.00 50 1013.3
20260502104547 8 213 22.5 30.6 0.00 0.00 0.00 50 1013.4
20260502104038 8 198 19.3 30.6 0.00 0.00 0.00 50 1013.4
20260502103538 8 209 19.3 30.6 0.00 0.00 0.00 50 1013.5
20260502103038 8 217 17.7 27.4 0.00 0.00 0.00 50 1013.6
20260502102538 8 215 19.3 24.1 0.00 0.00 0.00 50 1013.6
20260502102038 8 219 17.7 22.5 0.00 0.00 0.00 50 1013.6
20260502101538 8 216 19.3 24.1 0.00 0.00 0.00 51 1013.7
20260502101038 8 211 17.7 24.1 0.00 0.00 0.00 50 1013.8
20260502100536 8 209 16.1 19.3 0.00 0.00 0.00 50 1013.7
20260502091036 8 213 14.5 24.1 0.00 0.00 0.00 50 1014.2
20260502090536 8 216 14.5 24.1 0.00 0.00 0.00 50 1014.1
20260502071022 8 206 9.7 14.5 0.00 0.00 0.00 46 1015.4
20260502070527 8 203 9.7 14.5 0.00 0.00 0.00 46 1015.4
20260502070024 8 203 8.0 12.9 0.00 0.00 0.00 46 1015.5
20260502065017 8 207 9.7 14.5 0.00 0.00 0.00 46 1015.5
20260502064516 8 209 9.7 14.5 0.00 0.00 0.00 46 1015.6
20260502064016 8 200 9.7 16.1 0.00 0.00 0.00 46 1015.6
20260502063515 8 205 9.7 16.1 0.00 0.00 0.00 46 1015.6
20260502063015 8 198 9.7 16.1 0.00 0.00 0.00 45 1015.7
20260502062515 8 200 9.7 16.1 0.00 0.00 0.00 45 1015.5
20260502062014 8 187 11.3 16.1 0.00 0.00 0.00 45 1015.7
20260502061513 8 201 11.3 16.1 0.00 0.00 0.00 45 1015.7
20260502061013 8 213 12.9 16.1 0.00 0.00 0.00 45 1015.9
20260502060512 8 217 12.9 16.1 0.00 0.00 0.00 45 1015.8
20260502060012 7 216 11.3 14.5 0.00 0.00 0.00 45 1015.8
20260502055018 8 218 12.9 16.1 0.00 0.00 0.00 44 1015.8
20260502054519 8 208 11.3 14.5 0.00 0.00 0.00 43 1016.0
20260502054017 8 204 11.3 16.1 0.00 0.00 0.00 42 1016.0
20260502053516 9 210 12.9 16.1 0.00 0.00 0.00 42 1016.0
20260502053015 8 217 12.9 16.1 0.00 0.00 0.00 42 1016.1
20260502052514 8 211 11.3 16.1 0.00 0.00 0.00 43 1016.2
20260502052015 7 209 9.7 16.1 0.00 0.00 0.00 44 1016.2
20260502051530 7 210 9.7 12.9 0.00 0.00 0.00 44 1016.2
20260502051014 6 202 9.7 12.9 0.00 0.00 0.00 46 1016.2
20260502050513 5 211 8.0 11.3 0.00 0.00 0.00 48 1016.2
20260502050013 5 213 4.8 8.0 0.00 0.00 0.00 46 1016.5
20260502045011 5 213 4.8 8.0 0.00 0.00 0.00 46 1016.5
20260502044510 5 213 4.8 8.0 0.00 0.00 0.00 47 1016.5
20260502044013 4 213 3.2 6.4 0.00 0.00 0.00 47 1016.7
20260502043509 5 213 3.2 6.4 0.00 0.00 0.00 45 1016.6
20260502043010 5 213 3.2 6.4 0.00 0.00 0.00 44 1016.7
20260502042510 5 210 3.2 6.4 0.00 0.00 0.00 44 1016.7
20260502042010 5 210 4.8 6.4 0.00 0.00 0.00 44 1016.9
20260502041508 6 208 3.2 6.4 0.00 0.00 0.00 42 1016.9
20260502041008 6 208 3.2 4.8 0.00 0.00 0.00 42 1017.0
20260502040509 6 208 3.2 6.4 0.00 0.00 0.00 42 1016.9
20260502040009 7 208 3.2 6.4 0.00 0.00 0.00 41 1016.8
20260502035007 7 208 3.2 6.4 0.00 0.00 0.00 40 1016.8
20260502034507 7 208 3.2 8.0 0.00 0.00 0.00 38 1016.9
20260502034007 8 208 4.8 8.0 0.00 0.00 0.00 40 1017.0
20260502033509 8 208 3.2 8.0 0.00 0.00 0.00 39 1016.9
20260502033005 8 204 4.8 8.0 0.00 0.00 0.00 39 1016.9
20260502032506 8 194 4.8 8.0 0.00 0.00 0.00 38 1016.8
20260502032005 8 194 4.8 8.0 0.00 0.00 0.00 37 1016.8
20260502031505 10 185 4.8 8.0 0.00 0.00 0.00 37 1016.8
20260502031005 10 224 6.4 8.0 0.00 0.00 0.00 35 1016.8
20260502030505 10 224 4.8 8.0 0.00 0.00 0.00 35 1016.8
20260502030005 10 224 4.8 8.0 0.00 0.00 0.00 35 1016.8
20260502025009 10 219 4.8 8.0 0.00 0.00 0.00 35 1016.7
20260502024509 10 218 4.8 6.4 0.00 0.00 0.00 34 1016.7
20260502024010 10 218 4.8 6.4 0.00 0.00 0.00 34 1016.8
20260502023512 11 218 4.8 6.4 0.00 0.00 0.00 34 1016.7
20260502023009 11 215 4.8 6.4 0.00 0.00 0.00 33 1016.6
20260502022510 11 215 4.8 6.4 0.00 0.00 0.00 32 1016.7
20260502022008 11 215 4.8 6.4 0.00 0.00 0.00 33 1016.7
20260502021508 11 215 3.2 6.4 0.00 0.00 0.00 32 1016.6
20260502021008 11 217 3.2 6.4 0.00 0.00 0.00 31 1016.6
20260502020507 12 218 3.2 8.0 0.00 0.00 0.00 30 1016.7
20260502020008 13 218 4.8 8.0 0.00 0.00 0.00 29 1016.7
20260502015012 14 218 6.4 8.0 0.00 0.00 0.00 28 1016.8
20260502014510 15 211 6.4 11.3 0.00 0.00 0.00 27 1016.8
20260502014009 16 209 6.4 11.3 0.00 0.00 0.00 26 1016.8
20260502013505 16 207 6.4 12.9 0.00 0.00 0.00 25 1016.7
20260502013004 17 205 8.0 12.9 0.00 0.00 0.00 24 1016.7
20260502012504 17 212 9.7 16.1 0.00 0.00 0.00 24 1016.8
20260502012006 17 211 9.7 16.1 0.00 0.00 0.00 24 1016.9
20260502011504 17 211 11.3 16.1 0.00 0.00 0.00 23 1016.9
20260502011003 18 207 11.3 24.1 0.00 0.00 0.00 23 1017.1
20260502010503 18 212 16.1 24.1 0.00 0.00 0.00 23 1017.0
20260502010004 18 227 12.9 16.1 0.00 0.00 0.00 22 1016.9
20260502005059 18 209 11.3 19.3 0.00 0.00 0.00 22 1017.0
20260502004559 18 221 12.9 19.3 0.00 0.00 0.00 22 1017.0
20260502004059 18 229 14.5 22.5 0.00 0.00 0.00 22 1017.2
20260502003601 18 224 9.7 17.7 0.00 0.00 0.00 22 1017.2
20260502003057 18 238 12.9 17.7 0.00 0.00 0.00 21 1017.3
20260502002557 18 211 12.9 17.7 0.00 0.00 0.00 21 1017.2
20260502002056 18 200 9.7 14.5 0.00 0.00 0.00 22 1017.4
20260502001558 18 223 8.0 22.5 0.00 0.00 0.00 22 1017.4
20260502001055 19 235 12.9 22.5 0.00 0.00 0.00 21 1017.5
20260502000556 19 209 9.7 19.3 0.00 0.00 0.00 21 1017.3
20260502000055 19 215 12.9 22.5 0.00 0.00 0.00 22 1017.4
20260501235655 18 232 12.9 16.1 0.00 0.00 0.00 22 1017.2
20260501235059 19 225 12.9 16.1 0.00 0.00 0.00 22 1017.3
20260501234600 19 209 6.4 16.1 0.00 0.00 0.00 22 1017.4
20260501234101 18 225 9.7 17.7 0.00 0.00 0.00 21 1017.5
20260501233602 18 225 6.4 24.1 0.00 0.00 0.00 21 1017.6
20260501233103 19 219 12.9 24.1 0.00 0.00 0.00 21 1017.6
20260501232558 19 185 11.3 24.1 0.00 0.00 0.00 21 1017.4
20260501232101 19 246 9.7 17.7 0.00 0.00 0.00 21 1017.6
20260501231605 19 196 4.8 12.9 0.00 0.00 0.00 22 1017.7
20260501231056 19 142 6.4 17.7 0.00 0.00 0.00 22 1017.4
20260501230557 19 217 12.9 17.7 0.00 0.00 0.00 22 1017.6
20260501230058 19 198 8.0 20.9 0.00 0.00 0.00 22 1017.6
20260501225656 19 242 6.4 19.3 0.00 0.00 0.00 22 1017.7
20260501225057 19 256 4.8 19.3 0.00 0.00 0.00 22 1017.7
20260501224555 19 243 9.7 19.3 0.00 0.00 0.00 22 1017.7
20260501224055 19 231 6.4 19.3 0.00 0.00 0.00 22 1017.7
20260501223554 19 238 8.0 17.7 0.00 0.00 0.00 22 1017.9